Weather History for Greeley, CO

Change the Weather History Date:

Sunday, May 4, 2014

  Actual Average Record
Temperature  
Mean Temperature 66 °F -  
Max Temperature 87 °F 65 °F 89 °F (2000)
Min Temperature 44 °F 37 °F 30 °F (2008)
Growing Degree Days 16 (Base 50)    
Moisture  
Dew Point 29 °F    
Average Humidity 33    
Maximum Humidity 58    
Minimum Humidity 10    
Precipitation  
Precipitation 0.00 in - - ()
Sea Level Pressure  
Sea Level Pressure 29.84 in    
Wind  
Wind Speed 7 mph (WNW)    
Max Wind Speed 21 mph    
Max Gust Speed 29 mph    
Visibility 10 miles    
Events      
Averages and records for this station are not official NWS values.
T = Trace of Precipitation, MM = Missing Value Source: NWS Daily Summary

Daily Weather History Graph

Daily Weather History Graph

Search for Another Location

Airport:

Trip Planner

Search our weather history database for the weather conditions in past years. The results will help you decide how hot, cold, wet, or windy it might be!

Date:

Astronomy

May. 04, 2014 Rise Set
Actual Time 5:53 AM MDT 7:57 PM MDT
Civil Twilight 5:24 AM MDT 8:27 PM MDT
Nautical Twilight 4:47 AM MDT 9:03 PM MDT
Astronomical Twilight 4:08 AM MDT 9:43 PM MDT
Moon 10:20 AM MDT (5/4) 12:04 AM MDT (5/4)
Length of Visible Light 15h 03m
Length of Day
14h 03m
Waxing Crescent, 28% of the Moon is Illuminated
May 4
Waxing Crescent
May 6
First Quarter
May 14
Full
May 21
Last Quarter
May 28
New

Hourly Weather History & Observations

Time (MDT) Temp. Windchill Dew Point Humidity Pressure Visibility Wind Dir Wind Speed Gust Speed Precip Events Conditions
12:15 AM 55.4 °F - 30.2 °F 38% 29.88 in 10.0 mi SW 5.8 mph - N/A   Clear
12:35 AM 57.2 °F - 28.4 °F 33% 29.88 in 10.0 mi West 4.6 mph - N/A   Clear
12:55 AM 57.2 °F - 28.4 °F 33% 29.87 in 10.0 mi WSW 6.9 mph - N/A   Clear
1:15 AM 55.4 °F - 28.4 °F 36% 29.87 in 10.0 mi SW 8.1 mph - N/A   Clear
1:35 AM 51.8 °F - 28.4 °F 41% 29.86 in 10.0 mi NE 3.5 mph - N/A   Clear
1:55 AM 53.6 °F - 28.4 °F 38% 29.87 in 10.0 mi WNW 3.5 mph - N/A   Clear
2:15 AM 48.2 °F - 30.2 °F 50% 29.86 in 10.0 mi North 3.5 mph - N/A   Clear
2:35 AM 48.2 °F - 30.2 °F 50% 29.86 in 10.0 mi NNE 5.8 mph - N/A   Clear
2:55 AM 46.4 °F 44.3 °F 30.2 °F 53% 29.86 in 10.0 mi North 4.6 mph - N/A   Clear
3:15 AM 48.2 °F - 30.2 °F 50% 29.86 in 10.0 mi NNE 4.6 mph - N/A   Clear
3:35 AM 46.4 °F - 30.2 °F 53% 29.86 in 10.0 mi Calm Calm - N/A   Clear
3:55 AM 46.4 °F - 30.2 °F 53% 29.86 in 10.0 mi Calm Calm - N/A   Clear
4:15 AM 46.4 °F - 30.2 °F 53% 29.86 in 10.0 mi Calm Calm - N/A   Clear
4:35 AM 46.4 °F 45.2 °F 28.4 °F 50% 29.86 in 10.0 mi NNW 3.5 mph - N/A   Clear
4:55 AM 44.6 °F 41.4 °F 28.4 °F 53% 29.87 in 10.0 mi NNW 5.8 mph - N/A   Clear
5:15 AM 44.6 °F - 30.2 °F 57% 29.86 in 10.0 mi Calm Calm - N/A   Clear
5:35 AM 44.6 °F 41.4 °F 30.2 °F 57% 29.87 in 10.0 mi NNW 5.8 mph - N/A   Clear
5:55 AM 44.6 °F 40.7 °F 30.2 °F 57% 29.88 in 10.0 mi NW 6.9 mph - N/A   Clear
6:15 AM 44.6 °F 42.2 °F 28.4 °F 53% 29.88 in 10.0 mi West 4.6 mph - N/A   Clear
6:35 AM 46.4 °F 43.5 °F 28.4 °F 50% 29.88 in 10.0 mi WNW 5.8 mph - N/A   Clear
6:55 AM 44.6 °F 43.1 °F 30.2 °F 57% 29.88 in 10.0 mi NNW 3.5 mph - N/A   Clear
7:15 AM 44.6 °F 42.2 °F 28.4 °F 53% 29.89 in 10.0 mi NW 4.6 mph - N/A   Clear
7:35 AM 44.6 °F 41.4 °F 30.2 °F 57% 29.89 in 10.0 mi ENE 5.8 mph - N/A   Clear
7:55 AM 46.4 °F 45.2 °F 30.2 °F 53% 29.89 in 10.0 mi East 3.5 mph - N/A   Clear
8:15 AM 48.2 °F - 33.8 °F 58% 29.89 in 9.0 mi NW 5.8 mph - N/A   Clear
8:35 AM 48.2 °F - 33.8 °F 58% 29.90 in 10.0 mi West 6.9 mph - N/A   Clear
8:55 AM 50.0 °F - 33.8 °F 54% 29.90 in 10.0 mi East 4.6 mph - N/A   Clear
9:15 AM 51.8 °F - 33.8 °F 50% 29.90 in 10.0 mi Calm Calm - N/A   Clear
9:35 AM 51.8 °F - 35.6 °F 54% 29.90 in 10.0 mi Calm Calm - N/A   Clear
9:55 AM 53.6 °F - 37.4 °F 54% 29.90 in 10.0 mi ENE 3.5 mph - N/A   Clear
10:15 AM 57.2 °F - 39.2 °F 51% 29.89 in 10.0 mi ESE 10.4 mph - N/A   Clear
10:35 AM 60.8 °F - 39.2 °F 45% 29.89 in 10.0 mi SE 8.1 mph - N/A   Clear
10:55 AM 62.6 °F - 37.4 °F 39% 29.89 in 10.0 mi ESE 8.1 mph - N/A   Clear
11:15 AM 64.4 °F - 37.4 °F 37% 29.88 in 10.0 mi ESE 6.9 mph - N/A   Clear
11:35 AM 68.0 °F - 37.4 °F 33% 29.88 in 10.0 mi SE 8.1 mph - N/A   Clear
11:55 AM 69.8 °F - 39.2 °F 33% 29.86 in 3.0 mi ESE 10.4 mph - N/A   Clear
12:15 PM 71.6 °F - 39.2 °F 31% 29.84 in 10.0 mi ESE 10.4 mph - N/A   Clear
12:35 PM 75.2 °F - 39.2 °F 27% 29.83 in 10.0 mi East 8.1 mph - N/A   Clear
12:55 PM 82.4 °F - 35.6 °F 19% 29.83 in 10.0 mi ESE 9.2 mph - N/A   Clear
1:15 PM 80.6 °F - 28.4 °F 15% 29.82 in 10.0 mi SSW 13.8 mph 20.7 mph N/A   Clear
1:35 PM 82.4 °F - 23.0 °F 11% 29.81 in 10.0 mi South 12.7 mph - N/A   Clear
1:55 PM 84.2 °F - 24.8 °F 11% 29.80 in 10.0 mi South 13.8 mph 17.3 mph N/A   Clear
2:15 PM 86.0 °F - 24.8 °F 11% 29.79 in 10.0 mi South 15.0 mph 27.6 mph N/A   Clear
2:35 PM 84.2 °F - 24.8 °F 11% 29.79 in 10.0 mi WSW 4.6 mph 21.9 mph N/A   Clear
2:55 PM 84.2 °F - 23.0 °F 11% 29.79 in 10.0 mi West 16.1 mph - N/A   Clear
3:15 PM 84.2 °F - 23.0 °F 11% 29.78 in 10.0 mi SW 17.3 mph 21.9 mph N/A   Clear
3:35 PM 87.8 °F - 24.8 °F 10% 29.77 in 10.0 mi SW 19.6 mph 28.8 mph N/A   Clear
3:55 PM 86.0 °F - 24.8 °F 11% 29.77 in 10.0 mi SW 20.7 mph - N/A   Clear
4:15 PM 84.2 °F - 23.0 °F 11% 29.77 in 10.0 mi WSW 12.7 mph 21.9 mph N/A   Clear
4:35 PM 84.2 °F - 23.0 °F 11% 29.76 in 10.0 mi WSW 18.4 mph - N/A   Clear
4:55 PM 82.4 °F - 21.2 °F 10% 29.76 in 10.0 mi West 18.4 mph - N/A   Clear
5:15 PM 82.4 °F - 21.2 °F 10% 29.76 in 10.0 mi West 16.1 mph - N/A   Clear
5:35 PM 84.2 °F - 23.0 °F 11% 29.76 in 10.0 mi West 12.7 mph - N/A   Clear
5:55 PM 80.6 °F - 21.2 °F 11% 29.76 in 10.0 mi West 11.5 mph 17.3 mph N/A   Clear
6:15 PM 80.6 °F - 21.2 °F 11% 29.76 in 10.0 mi WNW 11.5 mph - N/A   Clear
6:35 PM 78.8 °F - 21.2 °F 12% 29.77 in 10.0 mi WNW 10.4 mph - N/A   Clear
6:55 PM 75.2 °F - 26.6 °F 17% 29.77 in 10.0 mi NW 8.1 mph - N/A   Clear
7:15 PM 73.4 °F - 28.4 °F 19% 29.78 in 10.0 mi West 4.6 mph - N/A   Clear
7:35 PM 73.4 °F - 26.6 °F 18% 29.79 in 10.0 mi NW 6.9 mph - N/A   Clear
7:55 PM 69.8 °F - 28.4 °F 21% 29.79 in 10.0 mi NW 5.8 mph - N/A   Clear
8:15 PM 71.6 °F - 24.8 °F 17% 29.80 in 10.0 mi WNW 3.5 mph - N/A   Clear
8:35 PM 68.0 °F - 23.0 °F 18% 29.81 in 10.0 mi NW 6.9 mph - N/A   Clear
8:55 PM 60.8 °F - 19.4 °F 20% 29.81 in 10.0 mi NNW 5.8 mph - N/A   Clear
9:15 PM 62.6 °F - 23.0 °F 22% 29.82 in 10.0 mi North 9.2 mph - N/A   Clear
9:35 PM 59.0 °F - 26.6 °F 29% 29.83 in 10.0 mi North 5.8 mph - N/A   Clear
9:55 PM 60.8 °F - 24.8 °F 25% 29.83 in 10.0 mi West 8.1 mph - N/A   Clear
10:15 PM 57.2 °F - 24.8 °F 29% 29.85 in 10.0 mi WSW 9.2 mph - N/A   Clear
10:35 PM 59.0 °F - 24.8 °F 27% 29.85 in 10.0 mi Calm Calm - N/A   Clear
10:55 PM 53.6 °F - 26.6 °F 35% 29.85 in 9.0 mi East 4.6 mph - N/A   Clear
11:15 PM 55.4 °F - 26.6 °F 33% 29.88 in 10.0 mi NW 6.9 mph 19.6 mph N/A   Clear
11:35 PM 55.4 °F - 28.4 °F 36% 29.87 in 10.0 mi NNW 5.8 mph - N/A   Clear
11:55 PM 55.4 °F - 28.4 °F 36% 29.88 in 10.0 mi Calm Calm - N/A   Clear